Location: Unspecified
(0.0000°N, 0.0000°E)
Time: 09:37:11
(UTC+00:00)

ATLAS 5 CENTAUR DEB - Pass Details

Date: 20 February 2026
Orbit: 8295 x 34941 km, 19.8° (Epoch: 28 February)

Event Time Altitude Azimuth Distance (km) Brightness Sun altitude
Rises 20:56:29 0° 254° (WSW) 22,084 ? -39.9°
Reaches altitude 10° 21:25:33 10° 250° (WSW) 24,547 ? -46.9°
Maximum altitude 08:05:56 59° 7° (N) 9,210 ? 27.6°
Drops below altitude 10° 08:54:31 10° 90° (E) 13,883 ? 39.4°
Sets 09:08:54 0° 96° (E) 16,489 ? 42.9°
